EW3845 Weather Reports


Display with metric or nautical units.
time (UTC)temp
F
wind
direction
speed
MPH
gust
MPH
rain 1hr
in
rain 24hr
in
rain mn
in
humidity
%
barometer
mb
20260831050031 61 360 0.0 0.0 0.00 0.02 0.02 89 1009.7
20260831044530 61 360 0.0 0.0 0.00 0.02 0.02 89 1009.7
20260831043036 62 360 0.0 0.0 0.00 0.02 0.02 89 1009.6
20260831041526 62 275 0.0 0.0 0.00 0.02 0.02 89 1009.6
20260831040026 62 218 0.0 0.0 0.00 0.02 0.02 89 1009.5
20260831034525 62 213 0.0 0.0 0.00 0.02 0.02 90 1009.4
20260831033025 62 252 0.0 0.0 0.00 0.02 0.02 90 1009.4
20260831031530 62 254 0.0 0.0 0.00 0.02 0.02 90 1009.4
20260831030022 62 360 0.0 0.0 0.00 0.02 0.02 89 1009.4
20260831024525 62 360 0.0 0.0 0.00 0.02 0.02 89 1009.4
20260831023021 62 360 0.0 0.0 0.01 0.02 0.02 88 1009.1
20260831021519 63 360 0.0 0.0 0.02 0.02 0.02 87 1009.2
20260831020017 63 360 0.0 0.0 0.02 0.02 0.02 87 1009.1
20260831014515 64 360 0.0 0.0 0.02 0.02 0.02 85 1009.3
20260831013030 64 257 0.0 0.0 0.01 0.01 0.01 83 1009.6
20260831011517 64 225 0.0 0.0 0.00 0.00 0.00 80 1009.3
20260831010015 65 226 0.0 0.0 0.00 0.02 0.00 79 1009.3
20260831004513 65 225 0.0 0.0 0.00 0.02 0.00 79 1009.3
20260831003014 65 225 0.0 0.0 0.00 0.02 0.00 79 1009.4
20260831001518 65 225 0.0 0.0 0.00 0.02 0.00 78 1009.7
20260831000003 65 225 0.0 0.0 0.00 0.02 0.00 77 1009.8
20260830234502 66 230 0.0 0.0 0.00 0.02 0.00 77 1009.8
20260830233001 66 232 0.0 0.0 0.00 0.02 0.00 76 1009.7
20260830231607 66 238 0.0 0.0 0.00 0.02 0.00 76 1009.7
20260830230058 66 238 0.0 0.0 0.00 0.02 0.00 76 1009.8
20260830224607 67 238 0.0 0.0 0.00 0.02 0.00 76 1009.9
20260830223056 67 239 0.0 0.0 0.00 0.02 0.00 75 1009.9
20260830221554 67 240 0.0 0.0 0.00 0.02 0.00 75 1010.1
20260830220056 67 242 0.0 0.0 0.00 0.02 0.02 75 1010.2
20260830214553 67 248 0.0 0.0 0.00 0.02 0.02 75 1010.2
20260830213052 67 254 0.0 0.0 0.00 0.02 0.02 75 1010.4
20260830211551 67 360 0.0 0.0 0.00 0.02 0.02 75 1010.3
20260830210100 67 360 0.0 0.0 0.00 0.02 0.02 75 1010.5
20260830204554 67 360 0.0 0.0 0.00 0.02 0.02 76 1010.6
20260830203050 67 360 0.0 0.0 0.00 0.02 0.02 76 1010.6
20260830201554 67 360 0.0 0.0 0.00 0.02 0.02 76 1010.7
20260830200104 67 360 0.0 0.0 0.00 0.02 0.02 75 1010.9
20260830194608 67 360 0.0 0.0 0.00 0.02 0.02 75 1011.0
20260830193048 67 360 0.0 0.0 0.00 0.02 0.02 75 1011.0
20260830191547 67 360 0.0 0.0 0.00 0.02 0.02 76 1011.2
20260830190047 68 360 0.0 0.0 0.00 0.06 0.02 75 1011.0
20260830184547 68 360 0.0 0.0 0.00 0.06 0.02 74 1011.0
20260830183047 68 360 0.0 0.0 0.00 0.06 0.02 74 1011.0
20260830182554 69 360 0.0 0.0 0.00 0.28 0.02 74 1011.3
20260830182042 69 360 0.0 0.0 0.00 0.28 0.02 73 1011.3
20260830181656 69 360 0.0 0.0 0.00 0.06 0.02 73 1011.0
20260830181556 69 360 0.0 0.0 0.00 0.28 0.02 73 1011.2
20260830181041 70 360 0.0 0.0 0.00 0.28 0.02 73 1011.3
20260830180553 70 360 0.0 0.0 0.00 0.28 0.02 72 1011.3
20260830180141 69 360 0.0 0.0 0.00 0.09 0.02 72 1011.1
20260830180041 70 360 0.0 0.0 0.00 0.47 0.02 72 1011.3
20260830175554 70 360 0.0 0.0 0.00 0.47 0.02 72 1011.4
20260830175042 70 360 0.0 0.0 0.00 0.47 0.02 72 1011.5
20260830174656 70 360 0.0 0.0 0.00 0.09 0.02 71 1011.2
20260830174553 70 360 0.0 0.0 0.00 0.47 0.02 71 1011.5
20260830174042 71 360 0.0 0.0 0.00 0.47 0.02 72 1011.4
20260830173556 71 360 0.0 0.0 0.00 0.47 0.02 71 1011.5
20260830173144 70 360 0.0 0.0 0.00 0.09 0.02 72 1011.3
20260830173044 71 360 0.0 0.0 0.00 0.47 0.02 72 1011.6
20260830172556 71 360 0.0 0.0 0.00 0.47 0.02 71 1011.6
20260830172045 71 360 0.0 0.0 0.00 0.47 0.02 70 1011.5
20260830171701 71 360 0.0 0.0 0.00 0.09 0.02 70 1011.3
20260830171558 71 360 0.0 0.0 0.00 0.47 0.02 70 1011.6
20260830171046 72 360 0.0 0.0 0.00 0.47 0.02 70 1011.6
20260830170559 72 360 0.0 0.0 0.00 0.47 0.02 70 1011.6
20260830170047 72 360 0.0 0.0 0.00 0.47 0.02 68 1011.6
20260830170001 71 360 0.0 0.0 0.00 0.09 0.02 68 1011.3
20260830165600 72 360 0.0 0.0 0.00 0.47 0.02 68 1011.7
20260830165046 72 360 0.0 0.0 0.00 0.47 0.02 68 1011.7
20260830164559 72 360 0.0 0.0 0.00 0.47 0.02 68 1011.7
20260830164514 72 360 0.0 0.0 0.00 0.09 0.02 68 1011.4
20260830164109 72 360 0.0 0.0 0.00 0.47 0.02 67 1011.9
20260830163559 72 360 0.0 0.0 0.00 0.47 0.02 67 1011.9
20260830163148 72 360 0.0 0.0 0.00 0.09 0.02 67 1011.5
20260830163047 72 360 0.0 0.0 0.00 0.47 0.02 66 1011.8
20260830162619 72 360 0.0 0.0 0.00 0.47 0.02 66 1011.8
20260830162043 73 360 0.0 0.0 0.00 0.47 0.02 66 1012.0
20260830161656 72 360 0.0 0.0 0.00 0.09 0.02 65 1011.8
20260830161555 73 287 0.0 0.0 0.00 0.47 0.02 65 1012.0
20260830161043 73 288 0.0 0.0 0.00 0.47 0.02 65 1012.0
20260830160554 73 360 0.0 0.0 0.00 0.47 0.02 66 1012.0
20260830160143 72 360 0.0 0.0 0.00 0.09 0.02 66 1011.7
20260830160042 73 360 0.0 0.0 0.00 0.47 0.02 66 1011.9
20260830155552 73 285 0.0 0.0 0.00 0.47 0.02 66 1011.9
20260830155100 73 360 0.0 0.0 0.00 0.47 0.02 65 1011.9
20260830154653 73 285 0.0 0.0 0.00 0.09 0.02 66 1011.6
20260830154551 73 285 0.0 0.0 0.00 0.47 0.02 66 1011.8
20260830154101 73 285 0.0 0.0 0.00 0.47 0.02 65 1011.8
20260830153047 73 294 0.0 0.0 0.00 0.09 0.02 65 1011.6
20260830151541 73 291 0.0 0.0 0.00 0.09 0.02 65 1011.7
20260830150044 73 360 0.0 0.0 0.00 0.09 0.02 64 1011.8
20260830144532 73 360 0.0 0.0 0.00 0.09 0.02 63 1011.9
20260830143030 73 360 0.0 0.0 0.00 0.09 0.02 65 1011.9
20260830141631 73 360 0.0 0.0 0.00 0.09 0.02 67 1011.8
20260830140028 73 286 0.0 0.0 0.00 0.09 0.02 67 1011.9
20260830134533 72 284 0.0 0.0 0.00 0.09 0.02 67 1011.9
20260830133030 72 290 0.0 0.0 0.00 0.09 0.02 67 1011.9
20260830131534 72 288 0.0 0.0 0.00 0.09 0.02 69 1011.9
20260830130024 72 288 0.0 0.0 0.00 0.09 0.02 69 1012.0
20260830124524 72 360 0.0 0.0 0.00 0.09 0.02 70 1012.1
20260830123022 72 289 0.0 0.0 0.00 0.09 0.02 70 1012.0
20260830121522 71 286 0.0 0.0 0.00 0.09 0.02 73 1012.0
20260830120018 70 287 0.0 0.0 0.00 0.09 0.02 73 1012.0
20260830114520 70 360 0.0 0.0 0.00 0.09 0.02 74 1011.8
20260830113019 70 286 0.0 0.0 0.00 0.09 0.02 74 1011.8
20260830111522 70 360 0.0 0.0 0.00 0.09 0.02 73 1011.8
20260830110016 70 294 0.0 0.0 0.00 0.09 0.02 74 1011.8
20260830104517 71 360 0.0 0.0 0.00 0.09 0.02 73 1011.8
20260830103016 70 292 0.0 0.0 0.00 0.09 0.02 75 1011.9
20260830101510 70 287 0.0 0.0 0.00 0.09 0.02 75 1011.6
20260830100012 69 360 0.0 0.0 0.00 0.09 0.02 77 1011.6
20260830094505 68 289 0.0 0.0 0.00 0.09 0.02 79 1011.6
20260830093003 68 306 0.0 0.0 0.00 0.09 0.02 78 1011.6
20260830091505 67 293 0.0 0.0 0.00 0.09 0.02 79 1011.3
20260830090100 67 299 0.0 0.0 0.00 0.09 0.02 79 1011.2
20260830084558 67 290 0.0 0.0 0.00 0.09 0.02 79 1011.0
20260830084052 67 288 0.0 0.0 0.00 0.47 0.02 80 1011.3
20260830083603 67 360 0.0 0.0 0.00 0.47 0.02 81 1011.2
20260830083050 67 360 0.0 0.0 0.00 0.47 0.02 80 1011.3
20260830083002 67 293 0.0 0.0 0.00 0.09 0.02 80 1011.0
20260830082600 67 360 0.0 0.0 0.00 0.47 0.02 81 1011.2
20260830082108 67 294 0.0 0.0 0.00 0.47 0.02 80 1011.1
20260830081659 66 289 0.0 0.0 0.00 0.09 0.02 80 1010.9
20260830081557 67 312 0.0 0.0 0.00 0.47 0.02 80 1011.1
20260830081045 67 290 0.0 0.0 0.00 0.47 0.02 80 1011.0
20260830080558 67 289 0.0 0.0 0.00 0.47 0.02 80 1010.9
20260830080151 66 288 0.0 0.0 0.00 0.09 0.02 81 1010.8
20260830080049 67 360 0.0 0.0 0.00 0.47 0.02 81 1011.0
20260830075618 66 360 0.0 0.0 0.00 0.47 0.02 81 1010.9
20260830075049 66 292 0.0 0.0 0.00 0.47 0.02 81 1010.7
20260830074601 66 288 0.0 0.0 0.00 0.47 0.02 81 1010.7
20260830074521 66 288 0.0 0.0 0.00 0.09 0.02 81 1010.5
20260830074112 66 360 0.0 0.0 0.00 0.47 0.02 81 1010.8
20260830073054 66 288 0.0 0.0 0.00 0.09 0.02 81 1010.3
20260830071553 65 360 0.0 0.0 0.00 0.09 0.02 82 1010.2
20260830070047 65 298 0.0 0.0 0.00 0.09 0.02 82 1010.1
20260830064600 64 252 0.0 0.0 0.00 0.09 0.02 83 1010.0
20260830063044 64 360 0.0 0.0 0.00 0.09 0.02 83 1009.8
20260830061545 64 360 0.0 0.0 0.00 0.09 0.02 83 1009.6
20260830060041 63 285 0.0 0.0 0.00 0.09 0.02 84 1009.4
20260830054543 63 360 0.0 0.0 0.00 0.09 0.02 85 1009.4
20260830053039 62 290 0.0 0.0 0.00 0.09 0.02 85 1009.2
20260830051537 62 360 0.0 0.0 0.00 0.09 0.02 85 1009.1